COSMOS 1275 DEB, 42130

Orbit data source: Space-Track

COSMOS 1275 DEB, 42130 is space debris in LEO originally from a launch on Thu, 04 Jun 1981 UTC launched from the Plesetsk Missile And Space Complex (PKMTR). Debris objects in space refer to the collection of defunct objects orbiting the Earth. Examples of debris include non-operational satellites, rocket bodies, and fragments generated from explosions, collisions, or faulty payload assembly.

Loading next visibility...
Identifier
42130, 1981-053QS
Orbit
LEO
Country
Flag of CISCIS
Related business
Manufacturer
Unknown
Mission
Spacecraft
Bus & Motor
Unknown
Mass
Unknown
Launch date (UTC)
1981-06-04 (45 years ago)
Launch vehicle
Unknown
Launch site
Plesetsk Missile And Space Complex (PKMTR)
Object type
Payload
Rocket body
Debris
Shape & HBR
Unknown shape, 0.1 m
Radar Cross Section
Small (<0.1 m²)

Expand to show TLE details & history
Last TLE update: 6 days ago

TLE from 6 days ago
0 COSMOS 1275 DEB
1 42130U 81053QS  26259.03558818  .00002077  00000-0  91569-3 0  9998
2 42130  82.8600  13.3339 0019578  15.4659 344.7118 14.22890412659504
Epoch: 2026-09-16T00:51Z
TLE epoch observation values (Epoch: 2026-09-16T00:51:14.818Z)
Latitude
0.00001°
Longitude
5.5292°
Altitude
804.972 km
Speed
7.458 km/s
True Right ascension
00h 53m 20s
True Declination
0° 00' 00"
Sunlit
Object was in full shadow at epoch
Visualization orbit readout
Latitude
Unknown
Longitude
Unknown
Altitude
Unknown
Speed
Unknown
Apparent Right ascension
Unknown
Apparent Declination
Unknown
Sunlit
N/A
Visualization observer readout
Local Sidereal Time
00:50:50
Azimuth
Unknown
Elevation
Unknown
Doppler factor
Unknown
Orbital elements
Apogee altitude
826.758 km
Perigee altitude
798.602 km
Semi-major axis
7,190.817 km
Eccentricity
0.00196
Inclination
82.86°
RAAN
13.3339°
Arg. of periapsis
15.4659°
True anomaly
344.65251°
Mean anomaly
344.7118°
Eccentric anomaly
344.68217°
Mean motion
3.55939 °/min
Orbital period
101.14 mins
BSTAR
0.00091569
Loading maneuver chart data...
Computing Atmospheric mass density...

Documentation

Showing up to 5 results
|